KESWICK RESERVOIR (KES)

Elevation: 596' · SACRAMENTO R basin · Operator: US Bureau of Reclamation

Provisional data, subject to change.
Query executed Monday at 18:42:36   clock

Select a sensor type for a plot of data.
Note: Reservoir Flows are daily averages.

Earlier

Date RES ELE    STORAGE    RES CHG    OUTFLOW    INFLOW   
 FEET   AF   AF   CFS   CFS  
08/02/2014 583.64 21671 -79 8630 8597
08/03/2014 582.94 21247 -424 8638 8432
08/04/2014 584.34 22100 853 8581 9018
08/05/2014 582.60 21044 -1056 8640 8112
08/06/2014 583.96 21866 822 8424 8839
08/07/2014 583.70 21708 -158 8407 8331
08/08/2014 583.94 21854 146 8149 8228
08/09/2014 585.02 22520 666 7979 8323
08/10/2014 584.64 22285 -235 7987 7876
08/11/2014 584.08 21939 -346 8047 7878
08/12/2014 583.71 21714 -225 7767 7660
08/13/2014 583.81 21775 61 7570 7607
08/14/2014 582.15 20776 -999 7570 7071
08/15/2014 583.82 21781 1005 7351 7864
08/16/2014 584.11 21958 177 7381 7476
08/17/2014 583.66 21684 -274 7380 7248
08/18/2014 583.75 21738 54 7382 7416
08/19/2014 583.94 21854 116 7126 7191
08/20/2014 584.14 21976 122 7117 7186
08/21/2014 585.15 22601 625 7143 7464
08/22/2014 584.74 22347 -254 7177 7055
08/23/2014 584.36 22112 -235 7205 7094
08/24/2014 585.23 22651 539 7216 7495
08/25/2014 584.27 22057 -594 7201 6909
08/26/2014 584.44 22161 104 7414 7472
08/27/2014 583.51 21593 -568 7363 7083
08/28/2014 583.66 21684 91 7089 7139
08/29/2014 582.57 21026 -658 7249 6923
08/30/2014 581.98 20674 -352 6970 6800
08/31/2014 582.23 20823 149 6903 6984
09/01/2014 -- -- -- -- --

Later | Latest

Warning! This data is preliminary and subject to revision.

Download Data Now Download Data Now | Show KES Map | Plot KES Data | 1 Month KES Data | Real-Time KES Data | KES Info